Location: DaVinci Observatory
(43.1080°N, 78.6453°W)
Time: 20:30:32
(UTC-04:00)

OTV 5 (USA 277) - Visible Passes

Search period start: 15 June 2019 00:00
Search period end: 25 June 2019 00:00
Orbit: 310 x 325 km, 54.5° (Epoch: 08 May)

Date Brightness Start Highest point End Pass type
(mag) Time Alt. Az. Time Alt. Az. Time Alt. Az.
15 Jun ? 01:31:12 16° NE 01:31:12 16° NE 01:31:56 10° NE visible
15 Jun ? 03:02:29 10° NW 03:03:57 13° NNW 03:05:26 10° NNE visible
16 Jun ? 01:44:49 24° N 01:44:49 24° N 01:46:30 10° NNE visible
17 Jun ? 01:58:18 15° NW 01:58:59 16° NNW 02:00:52 10° NNE visible
18 Jun ? 00:40:47 19° NNE 00:40:47 19° NNE 00:41:48 10° NE visible
18 Jun ? 02:13:08 10° NW 02:14:03 11° NNW 02:14:58 10° N visible
19 Jun ? 00:53:48 21° NW 00:54:02 21° NNW 00:56:15 10° NNE visible
19 Jun ? 04:03:48 10° N 04:04:37 11° NNE 04:05:26 10° NNE visible
19 Jun ? 23:35:21 32° NE 23:35:21 32° NE 23:37:02 10° NE visible
20 Jun ? 01:07:35 10° NW 01:09:03 13° NNW 01:10:31 10° NNE visible
20 Jun ? 04:17:52 10° NNW 04:19:42 16° NNE 04:21:32 10° ENE visible
20 Jun ? 22:12:33 10° S 22:14:51 23° SE 22:17:09 10° ENE visible
20 Jun ? 23:46:38 10° W 23:49:06 29° NNW 23:51:36 10° NNE visible
21 Jun ? 04:32:13 10° NNW 04:34:41 28° NNE 04:37:07 10° E visible
21 Jun ? 22:26:44 10° SW 22:29:27 69° SE 22:32:13 10° NE visible
22 Jun ? 00:02:12 10° WNW 00:04:04 16° NNW 00:05:57 10° NNE visible
22 Jun ? 03:13:19 10° NNW 03:14:43 13° NNE 03:16:07 10° NE visible
22 Jun ? 04:46:45 10° NW 04:49:31 67° NE 04:52:14 10° ESE visible
22 Jun ? 22:41:34 10° WSW 22:44:14 42° NNW 22:46:54 10° NE visible
23 Jun ? 00:18:15 10° NW 00:19:09 11° NNW 00:20:04 10° N visible
23 Jun ? 03:27:34 10° NNW 03:29:45 21° NNE 03:31:56 10° ENE visible
23 Jun ? 05:01:35 10° WNW 05:04:12 40° SW 05:06:47 10° SSE visible
23 Jun ? 22:56:55 10° W 22:59:07 21° NNW 23:01:20 10° NNE visible
24 Jun ? 02:08:52 10° N 02:09:43 11° NNE 02:10:34 10° NNE visible
24 Jun ? 03:42:01 10° NW 03:44:40 41° NE 03:47:17 10° ESE visible
24 Jun ? 21:36:38 10° WSW 21:39:22 69° NW 21:42:08 10° NE visible
24 Jun ? 23:12:42 10° NW 23:14:09 13° NNW 23:15:37 10° NNE visible
